Dewpoint
-1 2 5 5 3 3 4 4 4 6 6 4 4 8 9 10 9 9 7 4 3 6 6 5 6 7 9 7 7 8 8 9 9 8 8 7 7 8 8 9 10 11 11 12 11 11 11 11 11 10 9 9 9 8 8 8 7 7 7 7 6 5 5 5 5 5 5 5 5 6 6 6 6 6 6 6 6 5 5 5 6 6 2 -10 -27 -30
-1 5 6 5 6 7 6 8 9 8 8 7 8 10 10 11 11 10 9 8 4 5 6 5 6 7 7 6 6 7 7 8 8 7 7 7 7 8 8 8 9 11 11 11 11 11 11 11 10 10 9 8 9 8 8 7 7 7 7 6 6 4 4 5 5 5 5 5 6 6 6 6 6 6 6 6 6 6 6 5 4 5 3 -2 -10 -20
-1 6 7 7 8 8 7 9 10 9 8 9 10 10 9 10 10 10 10 10 4 5 8 6 6 8 7 5 6 7 7 7 7 6 7 7 7 8 8 8 9 11 11 11 11 11 11 10 10 10 9 8 9 8 8 8 7 7 6 6 6 4 4 5 4 4 5 5 5 5 6 6 6 6 6 6 6 6 6 5 4 3 1 -1 -3 -10
3 6 6 6 9 9 8 10 11 9 10 11 10 8 7 8 8 9 10 10 4 4 7 7 9 10 10 8 6 6 6 6 7 7 7 6 7 8 8 8 8 10 11 11 11 11 10 10 10 10 9 8 8 8 8 7 7 7 6 6 6 4 4 5 4 5 4 4 5 5 6 6 6 6 5 5 6 6 6 6 5 4 2 -2 -6 -12
6 8 5 5 8 8 9 10 11 10 10 10 8 6 6 6 6 6 7 6 5 5 5 7 10 10 9 9 7 6 6 6 6 7 7 6 7 8 8 8 8 10 11 11 11 11 10 10 9 9 9 8 8 8 8 7 7 7 6 6 5 4 4 4 4 5 4 4 5 6 6 7 7 6 5 5 6 6 7 6 6 5 3 -5 -15 -21
4 5 4 5 6 6 6 8 9 7 7 7 6 5 6 5 5 6 5 4 6 7 6 7 8 8 8 8 7 6 6 6 6 6 6 6 7 8 8 8 8 10 11 11 11 11 11 10 9 9 8 8 8 8 7 8 7 6 6 6 6 4 4 4 4 5 5 5 6 6 7 7 6 6 6 6 6 6 7 5 5 5 3 -7 -20 -24
1 1 2 2 3 3 4 5 5 4 6 6 4 3 5 5 5 6 5 4 7 9 7 7 8 9 9 8 7 7 6 5 5 5 5 5 6 8 8 8 8 9 10 11 11 11 10 10 10 9 9 8 8 8 8 8 7 6 6 6 6 5 4 4 5 5 5 6 6 6 7 7 6 6 6 6 6 7 6 6 5 5 3 -3 -13 -19
1 1 1 1 2 2 3 4 3 2 5 6 3 2 4 4 6 8 7 6 9 9 7 6 7 8 9 8 7 8 6 6 6 5 5 5 5 7 7 8 8 9 10 10 10 11 10 10 10 9 9 8 8 8 8 8 7 7 7 6 5 5 4 4 5 5 5 6 7 6 7 7 7 7 7 6 6 6 6 6 7 6 5 1 -7 -14
-0 0 1 1 1 1 2 3 2 2 4 4 2 2 3 2 7 11 11 11 10 7 8 8 6 8 10 8 7 8 7 6 6 6 5 5 5 6 6 8 8 8 9 9 10 11 10 10 10 9 9 9 8 8 7 7 7 6 7 6 5 5 5 4 5 5 5 5 6 6 7 7 7 7 7 6 6 6 6 7 7 7 6 4 -1 -6
-0 -0 -1 -1 1 2 1 2 1 1 3 3 -2 -0 3 6 10 11 12 13 12 9 9 9 7 8 10 10 8 9 9 7 6 5 5 5 5 6 6 7 7 8 8 9 10 10 10 10 10 10 9 9 8 8 8 7 7 7 6 6 5 6 5 4 4 5 5 5 6 7 7 6 7 7 6 6 6 6 6 7 7 7 7 6 5 1
-0 -1 -2 -2 1 2 1 1 1 1 2 1 -1 2 4 7 11 11 10 10 11 11 9 7 6 7 10 11 9 9 9 7 6 6 5 5 5 5 6 6 7 8 8 8 9 9 10 10 10 10 9 9 9 8 8 8 8 7 6 6 6 6 5 5 5 4 5 5 5 6 7 6 6 7 6 6 6 6 7 7 7 7 7 7 7 5
0 -0 -2 -4 -2 -0 0 2 1 1 1 1 3 5 6 7 10 11 10 8 10 11 8 4 6 8 10 10 8 7 7 6 6 5 5 5 5 5 5 6 7 7 7 7 8 9 10 10 10 10 10 9 9 9 8 8 8 7 7 6 6 6 5 5 5 4 5 5 5 6 7 6 6 6 6 6 6 6 7 8 7 7 7 7 7 7
1 -1 -4 -2 -2 -2 2 3 2 2 1 2 7 10 10 10 9 9 9 7 7 8 5 4 8 12 12 9 6 6 5 4 4 4 4 4 4 5 5 6 6 5 6 7 6 8 10 10 10 10 10 10 10 9 9 8 8 7 7 7 6 6 5 6 5 4 5 5 5 5 6 6 6 6 6 6 5 5 7 7 7 7 7 7 7 6
2 -0 -4 -1 -0 -0 3 4 4 5 4 5 8 11 12 12 9 7 6 6 7 4 2 3 7 11 11 8 5 6 4 4 4 3 4 4 4 4 5 5 5 5 6 6 5 7 9 10 10 10 10 10 10 10 9 9 8 7 7 7 7 6 6 6 5 5 5 5 5 5 6 6 6 6 6 5 5 5 7 7 7 7 8 8 7 7
3 1 -1 0 2 2 2 2 4 5 7 8 7 9 12 12 10 7 5 8 10 6 1 3 5 7 8 6 3 4 3 4 5 3 2 3 4 4 4 4 4 4 5 5 5 6 8 9 10 10 10 10 10 10 10 9 8 7 7 7 7 6 6 6 6 5 5 5 4 5 5 6 6 6 5 5 5 5 6 7 7 7 8 7 7 8
4 3 0 -1 1 1 -1 -0 1 1 5 7 7 8 10 10 7 6 3 5 7 5 3 3 3 3 4 3 2 2 2 4 4 4 2 3 3 4 4 4 4 4 5 5 5 5 7 9 9 9 10 10 11 10 10 9 9 8 7 7 6 6 6 6 6 6 5 5 4 4 5 6 6 6 5 5 5 5 6 6 6 7 8 7 8 8
4 4 2 0 -1 -3 -2 -1 -3 -2 2 3 4 7 7 3 3 4 4 5 5 5 6 4 2 2 2 3 2 1 3 5 5 5 4 4 3 3 4 4 4 4 5 5 5 4 6 8 9 9 10 10 11 11 10 9 9 8 7 7 7 6 6 6 6 6 6 5 5 5 5 5 5 5 5 5 5 6 6 6 7 7 8 7 8 8
2 1 1 0 -1 -3 -1 -0 -2 -2 -0 0 2 2 1 3 5 3 4 6 5 5 6 3 1 2 4 4 2 1 3 5 7 7 5 4 3 3 4 4 4 4 4 4 5 5 6 8 9 9 10 10 10 11 11 9 8 8 8 8 7 7 6 6 6 7 6 5 5 5 5 5 5 5 5 5 5 6 6 7 7 7 8 8 8 8
-2 0 1 -3 -3 -2 -4 -1 0 -1 -4 -1 1 -2 -0 6 6 1 2 5 5 5 5 4 2 2 2 3 1 3 4 4 6 6 4 3 3 3 3 3 4 4 4 4 5 5 5 7 9 9 10 10 10 11 11 9 8 8 8 7 7 7 6 6 6 6 6 6 5 5 5 5 5 5 5 5 5 5 6 7 7 7 8 8 8 8
-2 1 1 -3 -6 -2 -3 -3 -0 2 -1 -4 -2 -1 -0 3 3 0 0 3 4 6 6 5 3 1 0 1 1 3 4 2 3 5 3 2 2 2 3 4 3 4 4 4 5 5 5 7 9 9 10 10 11 11 10 10 9 8 8 7 7 7 6 6 6 6 6 6 5 6 6 5 5 5 5 5 5 5 6 7 7 6 7 8 8 8
0 2 1 -3 -4 -1 1 -0 -0 1 0 -2 1 2 2 0 1 0 -0 0 2 6 8 7 6 6 3 -1 1 1 2 1 1 4 4 3 4 3 2 3 3 3 4 4 4 5 5 6 9 10 10 10 10 11 10 10 9 8 8 7 7 6 6 6 6 6 6 6 6 6 6 6 6 6 6 6 5 6 6 7 7 7 7 7 7 8
1 2 0 -1 -1 0 0 -1 -2 -1 -1 0 3 2 1 1 2 2 2 1 -1 4 8 8 9 10 6 -3 1 1 -0 0 -0 3 3 3 4 3 2 3 3 3 4 4 4 5 5 7 9 10 10 9 9 10 10 10 10 9 8 8 7 7 6 7 6 6 6 6 6 6 6 6 6 6 6 6 5 6 6 6 7 7 7 7 7 7
-0 0 -1 -1 -0 0 0 -3 -3 -2 -4 -0 1 -1 -1 1 2 3 3 2 -1 1 3 4 6 8 2 -1 3 2 1 1 1 3 3 2 2 1 2 4 3 3 4 4 4 4 5 7 9 10 9 8 8 9 9 9 9 9 8 8 7 7 7 7 7 7 6 6 6 6 6 7 6 6 6 6 6 6 6 6 6 7 7 8 8 8
1 -1 -1 1 0 -1 -2 -3 -2 -3 -6 -2 -1 -3 -1 -0 1 2 2 1 1 0 0 1 2 3 1 2 2 0 2 2 1 3 1 2 3 3 3 3 3 4 4 4 4 4 5 7 8 8 8 8 8 8 8 8 8 9 8 7 7 7 8 8 7 7 7 6 6 6 6 6 7 6 6 6 6 6 6 6 7 7 7 8 8 8
1 -1 -0 2 2 1 -0 -1 0 0 -2 0 1 -1 -1 -1 0 3 2 0 1 0 -1 1 2 2 2 1 -1 0 1 0 2 3 1 3 4 4 5 5 4 4 5 5 5 5 5 6 8 8 7 8 7 7 8 8 8 9 8 8 8 8 8 8 8 8 8 7 7 6 6 7 7 7 7 7 7 6 6 6 7 7 8 8 8 8
0 -0 0 2 2 3 2 1 2 2 0 0 0 -1 -1 -1 2 5 3 -1 -0 1 -0 0 2 2 1 0 0 1 0 -0 2 2 2 4 4 4 6 7 5 4 5 6 5 5 5 5 7 8 7 7 7 7 7 7 8 9 8 8 8 8 8 8 8 8 8 7 7 7 7 7 7 7 7 7 7 6 6 6 7 7 8 8 8 8
-0 -0 1 3 3 2 1 1 1 1 0 1 -0 -2 -1 0 2 4 1 -1 1 1 -0 1 1 2 1 1 1 1 1 2 1 1 3 5 5 5 6 6 4 4 5 6 6 6 5 5 7 8 8 7 7 7 7 8 8 8 8 8 8 8 8 8 8 8 7 8 7 7 7 7 7 8 7 7 7 6 7 6 7 8 8 8 8 8
1 2 4 5 3 2 1 0 1 0 0 -0 -2 -3 -1 -0 0 1 -1 0 2 0 -0 2 2 1 1 1 2 2 1 2 1 2 4 4 3 4 4 3 4 4 6 6 6 6 6 6 7 7 7 7 7 7 7 8 9 9 8 9 9 9 8 8 8 8 7 8 8 7 7 8 8 8 8 7 7 7 7 6 7 8 8 8 8 8
3 3 4 4 3 2 1 -1 0 -0 -2 -1 -2 -2 -1 -1 1 3 2 3 3 1 0 2 1 1 2 2 2 2 1 1 0 2 5 3 2 3 3 2 4 5 6 6 7 7 7 6 7 7 7 7 7 7 7 8 9 9 8 9 9 9 8 8 8 8 8 8 8 8 8 8 8 8 8 7 7 6 6 6 7 8 8 8 8 8
4 4 4 3 2 2 -0 -1 -1 -1 1 3 2 -0 -2 -3 -1 2 3 2 2 1 1 2 2 3 3 2 1 1 0 0 -1 1 4 4 2 3 4 5 6 6 7 6 6 6 6 6 7 7 7 7 7 7 7 8 9 8 8 9 9 9 8 8 8 7 8 8 8 8 8 8 8 8 7 7 6 6 5 5 6 7 8 8 8 8
5 5 4 2 3 2 1 0 -0 -0 2 3 2 -0 -2 -2 -1 1 2 3 4 3 1 3 5 4 3 2 1 0 0 0 -1 1 4 4 2 2 3 5 6 5 5 6 6 5 6 6 7 8 7 7 7 8 8 9 9 8 8 8 9 9 8 8 8 7 7 7 7 7 8 8 8 8 7 6 5 5 4 5 6 6 7 8 8 8
5 4 3 3 4 3 1 0 1 1 0 -1 3 5 5 2 3 5 5 6 7 6 3 3 4 4 2 2 2 1 1 1 0 2 3 3 3 2 2 3 5 4 4 6 5 5 6 8 9 9 8 7 7 7 8 9 9 8 8 8 9 9 8 8 8 7 7 7 7 7 8 8 8 7 7 6 5 5 5 6 7 7 7 7 8 8
4 4 3 3 4 3 2 3 4 3 2 2 6 8 7 6 6 7 6 7 8 8 7 5 5 4 2 2 2 1 2 2 2 2 3 3 2 3 3 2 3 4 5 6 5 4 5 8 9 9 8 8 8 7 7 8 9 8 7 8 8 9 8 8 8 7 7 7 7 7 7 7 7 7 7 6 6 6 6 6 7 7 7 7 7 8
5 4 4 3 4 4 4 5 5 4 4 6 8 7 6 7 7 8 8 9 9 9 9 8 7 6 5 4 3 2 1 1 2 2 3 2 2 3 3 2 3 4 5 6 7 6 4 6 8 8 8 8 8 8 7 8 9 8 8 8 8 9 9 8 8 8 7 7 7 7 7 7 7 7 7 6 6 6 7 7 7 7 7 7 7 8
7 5 4 4 3 4 4 4 6 7 6 7 9 8 7 7 6 7 8 8 8 8 9 9 8 7 7 7 6 4 2 1 1 1 1 2 2 3 3 4 4 4 3 5 6 6 6 7 8 9 9 9 8 8 8 8 8 9 8 8 8 8 8 8 8 8 8 7 7 7 7 7 7 7 7 7 7 7 7 7 7 8 8 8 8 8
7 5 5 4 3 4 5 5 6 7 7 8 9 8 8 8 7 8 9 9 8 9 9 9 9 8 9 9 7 6 5 3 2 1 1 2 3 3 3 4 4 3 3 3 4 5 5 6 7 8 8 8 8 9 8 8 8 8 8 8 8 8 8 8 8 8 8 8 7 7 7 7 7 7 7 7 7 7 7 7 7 8 8 8 8 8
6 5 5 5 4 4 4 4 5 6 7 9 10 9 8 8 8 9 9 9 9 9 9 9 8 9 9 9 8 7 6 5 3 2 2 3 3 3 3 4 4 4 3 3 4 4 4 4 6 9 9 9 9 8 8 8 8 8 8 8 8 8 8 8 8 8 8 8 8 7 7 6 7 7 7 7 7 7 7 7 7 8 8 8 8 8
6 6 6 5 4 3 3 3 4 5 8 10 11 9 8 8 7 8 9 9 9 9 9 9 9 9 10 9 9 8 6 4 3 3 5 5 4 3 3 3 3 3 3 3 3 3 5 5 6 9 10 10 10 9 9 8 8 8 8 8 8 8 8 8 8 8 8 8 8 8 7 7 6 6 6 7 7 7 7 7 7 7 7 8 8 8
5 6 6 5 3 3 3 3 4 7 9 11 10 9 8 8 7 7 9 10 10 10 9 9 9 9 9 9 9 8 7 6 5 6 8 8 6 6 6 5 6 5 4 3 4 4 5 5 6 8 9 10 10 10 9 9 9 8 8 8 8 8 8 8 8 8 8 8 8 8 8 7 6 6 6 6 6 7 7 7 7 7 8 8 8 8
7 7 7 5 4 4 3 3 7 10 11 10 9 8 8 8 7 8 10 10 10 10 10 9 9 9 9 10 9 9 9 9 8 9 9 8 7 7 7 8 9 8 5 4 4 4 4 4 5 7 8 10 11 10 9 9 8 8 9 9 8 8 8 8 8 8 8 8 8 8 8 8 7 7 6 6 6 6 6 7 7 7 7 8 8 8
7 8 7 5 5 7 7 5 8 10 9 9 9 8 8 7 7 9 10 10 10 10 10 10 9 9 9 9 9 10 10 10 10 10 10 8 7 7 8 9 9 9 9 8 7 6 5 5 5 6 7 9 10 10 9 8 8 9 9 10 9 8 8 8 8 8 8 8 8 8 8 8 8 7 7 6 6 6 6 7 7 7 7 8 8 8
7 7 6 6 7 7 7 6 8 9 9 9 9 8 8 9 9 10 10 10 10 10 10 10 10 9 8 9 10 10 10 10 10 10 10 10 9 9 8 8 8 9 9 9 9 8 6 6 6 7 7 8 10 10 10 8 8 9 9 10 10 9 9 8 8 8 8 8 8 8 8 8 8 8 7 7 6 6 6 6 7 7 7 7 8 8
7 6 6 7 8 6 5 7 9 10 9 8 8 8 9 10 10 10 9 9 9 9 9 9 10 9 9 9 10 10 10 9 10 10 11 11 11 10 9 8 8 9 9 9 9 8 8 7 7 7 6 7 9 10 10 9 9 9 9 9 9 9 9 8 8 7 8 8 8 8 8 7 7 7 8 8 7 7 7 7 7 7 7 8 8 8
8 7 7 8 8 7 8 9 10 10 9 8 8 9 9 9 10 9 8 9 9 9 9 9 10 10 9 9 9 10 10 10 9 10 11 11 11 11 10 9 9 9 10 10 8 8 8 8 8 8 8 8 9 9 9 9 9 9 9 9 9 9 9 9 8 8 8 9 9 8 8 7 7 8 8 8 8 8 7 7 7 7 8 8 8 8
8 8 8 7 8 8 9 9 9 9 8 8 8 9 9 10 10 9 9 9 9 9 9 9 9 9 9 9 8 9 9 10 10 10 10 10 10 10 10 10 10 10 11 11 10 9 9 9 9 9 10 10 9 9 9 9 9 9 10 10 10 10 10 9 9 9 8 8 8 8 7 7 7 7 8 8 8 9 10 9 9 9 8 9 10 10
7 6 6 7 7 7 8 8 8 8 8 8 9 9 10 10 10 10 9 9 9 9 9 8 8 9 9 9 8 8 8 8 9 9 10 9 9 9 8 8 9 9 9 10 11 11 11 11 11 11 11 10 10 9 9 9 9 9 10 10 10 10 10 10 10 10 9 9 9 9 9 8 8 7 7 7 8 9 10 10 10 10 9 9 10 10
5 5 6 6 7 7 7 7 8 8 9 9 9 9 9 9 9 9 9 9 8 8 8 8 8 8 8 8 8 8 8 8 8 8 9 9 8 8 8 7 7 7 8 9 10 10 10 10 10 10 10 10 11 10 9 9 10 10 11 11 11 11 10 10 10 10 10 10 10 9 9 9 8 8 8 9 9 10 10 9 9 10 10 9 9 9
5 6 6 6 6 7 7 7 8 9 9 9 9 9 9 9 9 9 9 9 9 8 8 7 7 7 8 8 8 8 8 8 8 8 8 8 8 7 7 7 7 7 7 8 9 9 9 9 9 9 9 9 10 10 10 10 10 11 11 11 11 11 10 10 10 11 11 11 10 9 10 10 9 9 9 9 10 10 10 10 9 10 10 10 9 10
5 5 5 5 6 7 7 7 8 8 8 8 8 8 9 9 8 8 8 8 8 8 8 8 7 7 8 8 8 7 7 7 7 7 7 8 7 6 5 5 5 5 6 6 7 8 9 8 8 8 8 8 9 9 10 10 10 10 11 11 11 11 11 10 11 11 11 10 10 10 11 10 9 9 9 10 10 10 10 10 9 10 10 10 9 10
4 4 4 4 6 7 7 7 8 8 8 8 8 8 9 8 8 8 8 7 7 7 7 7 7 7 7 7 7 7 8 8 7 6 6 6 5 4 4 4 4 5 5 5 5 6 6 7 6 6 6 7 8 9 9 10 10 10 10 10 11 11 11 11 11 11 11 10 10 10 10 9 8 8 9 10 10 10 10 10 9 9 10 9 9 10
4 4 4 4 6 7 7 7 8 8 8 8 8 8 8 8 8 8 8 7 7 7 7 7 6 6 6 6 6 6 6 7 7 7 7 6 4 3 4 4 4 4 4 4 4 4 5 5 5 4 4 5 6 7 8 8 9 9 9 10 10 11 11 11 11 11 10 10 10 10 10 10 9 9 9 9 9 9 9 9 9 9 8 8 9 9
Wind_Speed
13 5 4 6 6 5 5 6 8 7 9 10 6 2 3 2 5 7 7 10 11 8 8 10 9 9 12 10 11 13 14 14 15 15 15 16 15 15 16 16 16 17 18 19 20 20 20 21 21 21 20 18 17 15 14 13 11 11 10 9 9 10 14 16 14 13 12 12 12 12 12 10 10 9 8 7 5 4 5 5 6 8 10 10 8 7
13 6 5 6 1 5 5 5 6 8 11 10 4 2 1 2 6 6 8 9 10 8 6 10 10 9 11 10 11 14 12 13 15 15 15 16 15 15 16 16 17 18 17 19 22 21 21 21 21 21 20 18 18 16 15 13 12 12 9 9 10 11 15 15 13 14 12 11 13 13 11 9 10 9 8 8 6 6 6 6 7 8 7 9 9 8
10 5 3 5 5 8 8 8 8 10 9 7 5 6 5 5 7 6 9 15 11 8 5 10 9 6 8 10 11 13 12 13 15 15 15 16 16 16 16 17 18 19 19 21 23 22 22 22 21 20 20 18 18 16 15 13 13 13 12 11 10 11 15 14 13 13 12 12 12 11 11 9 10 9 9 8 6 7 7 7 7 8 7 6 7 7
5 4 3 7 7 2 5 5 8 12 5 3 8 8 4 6 6 6 12 16 9 6 6 8 5 4 4 8 10 13 13 13 15 15 16 16 15 16 17 17 19 21 21 22 23 23 23 22 21 21 20 19 19 16 15 15 14 14 13 12 11 12 16 15 14 14 13 12 11 11 12 11 11 9 8 8 6 6 6 8 8 7 7 6 6 6
5 9 12 11 11 12 11 10 13 11 5 8 10 6 3 7 8 4 8 10 6 6 6 6 4 3 5 7 8 11 12 12 14 15 16 17 16 16 17 18 19 22 23 24 25 24 24 24 23 21 20 21 20 17 16 17 15 14 13 12 12 14 16 15 15 14 13 13 13 14 13 12 11 9 8 8 7 7 7 6 6 7 7 7 7 7
4 10 14 13 13 15 11 10 14 11 5 5 8 6 6 8 9 8 8 8 5 5 6 6 5 4 5 7 6 7 10 11 14 15 16 17 17 16 17 18 19 21 22 24 25 25 24 24 23 21 21 21 20 19 18 18 16 15 14 13 13 15 16 15 15 15 15 14 15 16 13 12 12 10 9 8 6 7 6 4 5 7 7 7 8 8
1 4 8 10 10 10 7 6 11 10 3 3 6 7 10 11 8 8 10 9 4 3 3 3 4 1 3 6 7 7 10 11 11 13 16 19 19 18 18 18 20 20 22 23 24 25 25 25 23 22 22 22 20 19 19 18 17 16 16 15 14 15 16 16 16 17 17 16 15 15 13 12 12 11 10 8 7 7 5 4 5 8 8 8 9 9
3 6 7 9 9 8 7 6 9 9 5 5 8 10 12 11 8 8 10 5 3 1 1 2 5 3 1 5 8 10 12 11 12 13 14 17 19 20 19 20 20 21 22 24 25 25 25 25 24 23 22 22 21 19 19 19 18 17 17 17 15 15 17 16 16 18 18 16 15 14 13 12 12 11 10 9 8 7 5 5 4 5 8 8 9 9
7 10 9 11 10 7 6 5 8 9 8 9 10 11 13 10 7 7 5 2 3 2 1 3 5 4 2 2 7 10 12 12 14 15 14 17 20 21 21 21 21 22 23 23 24 26 26 25 24 23 23 22 20 20 20 20 19 18 18 17 16 16 17 17 17 16 16 16 16 16 15 13 12 12 11 9 9 7 6 6 5 3 6 8 10 9
5 7 10 12 9 5 5 8 10 10 9 10 9 9 11 3 2 0 3 4 3 2 2 4 7 6 1 1 5 7 9 11 13 13 13 17 21 22 22 22 22 23 23 23 25 26 26 26 25 23 22 22 20 20 21 21 19 19 19 18 18 17 17 17 17 16 14 15 16 17 16 14 13 12 11 10 9 8 6 5 7 5 5 5 7 9
9 13 14 8 5 6 7 9 11 11 12 11 9 6 2 7 6 3 2 4 1 0 4 7 9 7 3 4 7 7 8 11 11 10 13 17 20 22 22 23 23 22 22 23 24 25 25 26 25 24 23 23 22 21 23 22 20 20 20 19 19 18 18 17 18 18 16 15 16 17 16 15 14 13 13 13 11 9 7 5 4 5 4 0 3 8
13 16 9 3 3 6 7 6 7 10 13 10 4 2 3 3 3 2 1 0 1 1 7 8 3 1 4 4 7 9 12 14 12 11 13 16 19 22 23 23 24 23 23 23 23 25 27 27 25 25 25 24 23 22 23 22 20 20 22 22 21 19 19 19 19 19 18 17 17 17 17 15 15 14 13 14 12 9 8 7 4 2 4 4 2 6
11 11 5 8 5 4 5 1 4 7 8 3 5 5 4 2 2 1 1 1 1 2 5 4 10 4 4 6 7 12 14 13 13 14 16 17 20 23 23 23 24 24 24 24 24 26 28 27 27 27 26 26 25 23 24 23 21 21 22 22 21 20 21 21 20 20 19 18 18 17 17 17 16 15 15 14 12 10 9 9 6 4 5 4 1 3
6 7 6 8 6 6 7 3 2 3 3 2 5 2 1 1 2 2 1 1 1 3 0 9 11 4 4 5 6 12 14 12 10 13 19 21 22 23 24 24 24 24 24 25 25 26 27 27 27 28 27 27 27 25 25 23 22 22 23 22 21 20 21 22 21 21 20 19 18 18 18 18 17 17 16 14 12 11 11 10 7 6 7 5 1 1
3 2 3 2 5 10 11 7 4 5 3 2 5 6 4 2 4 2 0 0 1 2 1 4 4 1 2 3 6 9 12 12 10 12 16 20 22 23 23 24 24 24 24 23 24 26 28 29 29 29 28 28 27 27 25 23 22 23 23 23 23 21 23 23 21 21 21 20 19 18 18 18 18 18 16 15 14 12 12 11 8 7 8 6 3 3
3 3 8 8 3 10 10 9 8 6 5 5 5 5 2 5 6 3 3 1 1 1 1 0 2 2 1 5 9 9 9 10 9 11 11 16 21 22 22 23 24 25 26 26 25 26 28 30 30 29 28 28 27 28 27 24 23 23 22 23 24 23 24 24 23 22 22 22 21 19 19 19 19 19 18 17 15 13 13 11 9 10 10 7 6 6
3 4 10 11 6 9 8 7 8 4 1 4 4 3 3 6 6 3 3 3 2 2 0 2 0 2 2 1 3 7 9 11 11 11 11 14 19 21 21 23 23 24 26 27 26 25 28 30 30 29 29 28 27 28 28 26 24 25 24 24 24 24 24 25 24 24 24 23 23 21 20 21 20 20 19 18 17 15 13 12 11 10 10 8 8 9
5 3 9 13 10 9 7 5 6 6 5 4 1 3 3 3 3 3 2 2 2 2 1 3 1 4 2 1 3 7 6 8 13 14 14 15 18 19 19 21 23 23 23 24 25 25 27 29 29 28 28 28 28 28 28 27 25 25 24 23 24 24 25 25 25 25 24 23 25 23 22 22 22 21 20 19 18 17 14 15 14 11 10 10 10 10
6 2 5 8 5 6 7 4 5 8 8 4 0 2 0 2 2 1 1 0 2 1 1 3 1 2 2 1 2 6 2 2 10 15 14 14 17 18 19 21 22 22 23 24 25 25 26 29 30 29 28 28 28 27 27 26 25 24 24 24 24 24 25 25 26 26 24 23 24 25 24 24 23 22 21 19 18 17 15 16 15 12 12 13 11 10
5 1 2 4 2 4 5 4 3 3 6 3 2 1 1 4 1 2 3 0 0 1 2 4 3 2 1 1 3 6 4 3 6 8 9 11 15 17 18 20 21 21 22 23 24 25 26 28 30 29 28 27 27 28 27 26 26 25 26 25 24 25 25 25 25 26 26 24 23 25 25 25 24 23 22 20 18 18 17 16 15 13 13 13 12 11
1 2 2 1 2 1 2 1 1 2 4 1 2 1 1 3 1 2 4 2 1 2 2 3 2 2 1 2 2 5 6 5 6 5 6 8 14 15 16 20 21 21 23 22 22 24 25 28 30 29 28 27 26 27 27 27 27 25 26 25 25 27 27 26 26 26 26 25 24 25 25 25 26 25 23 21 20 19 18 17 16 15 14 14 13 12
1 2 3 2 3 3 2 1 1 4 4 3 3 3 1 1 1 2 2 2 2 2 4 2 2 2 5 2 2 3 5 3 4 4 3 4 12 13 14 18 19 20 23 21 21 22 24 29 31 29 27 26 26 27 27 27 27 25 25 25 25 27 28 28 28 28 28 27 27 26 25 25 26 26 24 22 21 20 19 19 18 16 16 16 15 13
3 2 3 1 2 6 5 4 5 8 6 5 4 2 1 1 1 2 1 2 4 1 3 3 3 2 2 4 3 1 3 1 1 2 4 5 7 8 13 16 16 18 21 21 20 21 24 30 31 28 27 25 25 27 26 26 27 26 26 26 26 27 28 28 28 28 29 30 29 27 26 26 26 26 25 24 23 22 21 21 19 17 17 17 15 14
5 3 1 1 1 6 6 5 8 8 5 4 3 1 2 2 3 4 3 0 2 1 1 0 2 0 4 7 8 4 7 5 2 7 3 6 2 8 9 15 14 15 19 20 19 19 22 28 30 28 26 26 25 26 26 27 28 27 26 26 27 28 29 29 28 28 29 30 30 28 27 27 27 27 27 25 24 23 23 22 20 19 18 17 17 16
4 2 2 2 2 2 2 3 4 4 3 2 1 3 6 4 5 5 4 1 2 2 2 2 1 1 3 6 8 8 5 6 6 11 3 13 7 12 2 8 11 14 16 19 19 18 19 23 27 27 26 26 26 26 27 27 28 27 27 28 28 28 29 29 28 28 29 30 31 30 29 29 27 27 28 26 25 25 24 23 22 20 19 18 18 17
3 3 2 1 1 1 1 2 2 4 3 3 3 4 7 4 4 3 4 2 1 3 3 3 1 1 1 4 7 8 6 3 5 9 5 13 14 6 7 5 8 11 14 17 18 18 19 22 26 26 26 26 26 26 27 28 28 27 27 29 29 29 29 29 29 29 29 29 30 31 31 30 29 28 28 27 26 26 25 25 24 22 20 19 18 18
3 4 2 3 1 3 2 2 3 5 5 6 6 3 5 7 4 5 3 2 1 3 3 2 3 2 1 0 3 6 5 2 2 5 9 9 5 4 11 12 11 11 14 15 16 18 19 21 25 26 25 26 26 26 26 28 28 27 28 29 29 29 30 30 29 29 29 29 30 31 31 31 31 30 28 28 28 27 26 25 24 23 21 20 19 19
3 3 2 4 4 4 4 5 6 6 7 9 9 4 5 9 5 2 4 1 2 2 2 2 2 2 4 2 1 4 4 1 2 2 9 9 4 3 3 11 13 14 15 14 15 17 17 20 23 26 27 26 26 26 25 27 28 28 28 30 29 30 30 30 30 29 29 30 29 30 31 31 31 30 29 28 28 28 27 26 24 23 22 21 20 20
2 3 4 3 5 5 8 9 7 7 10 10 9 5 4 7 7 6 6 1 2 4 2 2 3 4 5 5 4 5 5 5 5 2 9 7 3 4 8 7 7 10 12 12 13 16 19 20 21 24 27 26 27 26 25 27 30 29 28 29 30 31 30 30 30 30 30 30 30 30 30 30 31 30 30 29 29 29 28 27 25 23 23 23 22 21
2 3 7 9 7 6 8 7 5 8 9 7 10 9 5 5 6 6 6 5 3 6 3 4 6 6 6 6 4 3 4 8 8 2 9 9 9 10 11 8 9 10 12 14 14 17 20 21 22 25 26 26 28 27 26 28 30 29 28 29 30 30 30 30 30 30 30 30 30 29 29 29 30 30 30 30 30 29 29 28 27 25 24 24 23 23
2 2 5 6 6 7 8 8 6 7 7 7 10 11 9 8 8 9 10 10 8 9 8 8 7 6 6 8 7 4 5 8 9 6 3 1 3 5 3 5 11 12 12 14 15 17 21 24 25 27 29 27 25 26 26 27 28 28 27 28 29 29 29 29 30 30 30 30 29 29 28 28 29 29 30 30 30 30 29 28 28 27 26 25 24 24
2 2 4 4 3 5 7 8 7 8 8 7 9 14 15 11 10 10 10 12 12 11 10 7 6 5 6 9 10 9 9 8 7 7 6 3 2 4 6 5 7 9 9 11 13 13 17 24 26 27 33 31 26 27 29 26 26 29 28 28 30 29 28 28 29 30 30 29 28 28 28 28 28 29 29 29 30 30 30 29 28 28 27 27 26 25
1 1 2 2 2 4 6 10 11 9 7 4 7 13 14 12 14 13 12 15 16 13 9 6 6 6 6 8 10 9 9 8 7 9 11 9 4 2 7 11 8 6 7 11 16 13 13 22 28 29 32 32 30 33 34 29 28 30 29 29 29 28 28 28 29 29 29 29 28 28 28 28 28 28 29 29 29 29 29 29 29 28 28 28 27 26
2 2 1 0 0 3 6 10 10 7 3 1 5 9 11 12 14 13 12 14 15 12 10 8 9 10 9 10 11 10 9 8 6 9 14 15 12 7 7 8 8 2 2 7 16 17 15 23 31 31 30 30 31 34 35 33 32 29 27 27 28 27 27 27 27 28 28 28 28 28 28 28 28 29 29 29 29 29 29 29 29 29 29 28 27 26
3 3 1 1 1 3 4 6 5 4 0 3 4 9 10 11 12 10 10 13 16 14 13 13 12 13 13 14 16 16 16 14 9 7 11 12 13 12 8 7 9 7 5 4 7 13 17 23 27 28 28 28 28 30 33 35 32 28 25 25 26 27 26 25 26 26 26 27 28 29 29 29 29 30 29 29 29 29 29 29 29 29 28 28 28 27
3 3 1 2 2 1 1 2 1 1 2 5 6 9 9 8 9 8 8 13 16 15 14 13 12 13 16 18 20 19 19 19 14 9 11 11 10 11 10 7 6 6 5 6 7 8 12 18 22 24 26 27 26 27 31 32 30 28 26 26 27 28 26 25 25 25 25 26 27 28 29 29 30 30 30 30 30 30 30 30 30 29 28 28 28 28
5 3 1 2 2 2 3 2 1 1 2 4 6 9 9 7 8 5 3 9 14 14 13 12 11 13 15 18 21 20 18 16 10 9 15 16 9 6 7 7 7 8 7 9 10 10 9 9 12 16 21 26 28 27 27 29 30 29 28 28 30 30 27 26 27 27 26 26 26 27 28 29 30 30 30 30 30 31 31 30 30 30 29 29 28 28
0 2 1 4 3 2 4 5 2 2 1 3 6 8 9 10 11 6 0 4 10 14 15 12 10 12 14 16 21 20 13 7 3 8 19 22 16 10 9 7 8 9 11 14 13 7 4 6 7 8 10 14 21 25 23 24 27 30 28 27 29 31 30 29 29 29 28 27 26 26 26 27 29 30 31 31 31 31 31 31 30 30 29 30 29 29
4 2 2 4 4 3 5 5 3 1 1 4 7 8 8 9 10 6 2 2 8 15 17 13 10 12 13 15 18 16 9 4 3 11 22 25 21 17 14 13 15 16 14 13 11 7 6 8 9 8 7 9 13 19 20 19 21 26 28 28 28 31 32 32 30 30 29 28 27 26 26 27 29 30 31 31 31 31 31 30 30 30 30 30 30 30
5 4 3 3 4 3 4 3 1 1 2 6 10 10 10 10 7 4 2 0 5 10 15 15 14 15 14 14 14 10 7 6 7 13 20 22 20 17 16 16 19 19 17 12 9 9 10 10 10 7 7 10 12 14 18 20 22 25 27 29 31 33 33 31 30 29 28 26 26 26 28 29 30 30 30 31 31 31 31 31 30 30 31 30 30 29
2 2 1 2 1 4 3 2 1 2 2 9 13 15 17 13 7 2 2 3 5 6 8 12 16 18 18 16 12 9 8 10 12 15 19 21 20 18 16 16 14 13 14 14 12 11 9 6 7 8 6 7 9 11 13 18 24 27 27 26 28 31 30 28 28 28 27 27 27 28 29 30 31 30 29 30 31 30 31 31 31 30 30 29 29 28
2 2 1 1 2 3 1 1 2 2 4 12 15 16 16 9 3 1 4 6 9 10 7 9 14 19 20 17 13 11 12 14 15 16 20 23 23 21 20 19 17 15 15 15 13 12 10 6 6 8 8 5 5 8 10 14 20 23 24 25 26 27 27 27 29 29 28 29 29 30 30 30 30 30 30 30 31 30 30 30 30 30 30 29 29 29
4 4 3 4 4 4 2 3 2 1 6 15 15 10 11 7 1 3 7 7 12 16 13 12 15 18 19 17 15 15 16 18 19 20 22 25 27 26 24 20 19 21 21 18 13 11 11 10 10 10 10 7 5 8 10 13 16 18 20 24 25 25 25 27 28 28 27 27 28 30 31 29 27 28 29 30 30 30 30 28 27 27 28 29 29 30
6 5 3 4 4 4 3 4 2 2 6 13 10 6 7 7 4 6 8 8 11 15 15 14 17 19 18 17 16 16 16 17 19 20 23 26 29 30 29 26 23 24 26 23 13 8 8 10 10 11 11 8 6 7 8 9 12 14 17 20 21 22 24 26 25 24 26 28 28 29 29 26 25 26 27 27 28 29 29 29 28 26 26 28 30 31
4 3 2 4 5 4 2 2 1 3 5 8 9 7 7 9 9 9 8 7 8 10 12 13 15 18 19 18 18 17 16 16 16 17 19 21 24 26 29 29 26 25 27 26 18 11 11 10 9 9 9 9 5 4 6 7 10 13 15 16 16 15 17 19 19 20 23 25 25 25 25 23 22 25 27 27 27 25 24 26 28 28 27 26 27 29
4 5 4 3 3 4 4 3 2 3 6 7 8 7 7 9 10 10 10 9 9 10 12 12 13 15 16 17 17 17 17 17 16 16 15 15 17 21 22 24 24 23 24 26 24 20 20 18 12 8 8 7 5 5 6 6 7 9 11 14 14 12 11 14 17 20 22 21 20 20 22 22 22 23 24 26 27 26 23 22 23 24 26 27 26 25
6 7 5 3 2 3 3 5 4 4 6 8 7 7 7 9 10 10 11 11 11 11 12 13 14 14 14 14 15 15 17 18 18 17 17 16 17 19 20 21 22 21 20 21 22 23 25 26 21 16 15 14 9 5 7 7 7 7 7 9 12 12 12 14 15 17 18 17 15 15 18 20 21 22 22 23 24 24 23 23 22 21 22 25 26 25
4 5 3 5 4 2 2 4 4 4 4 7 8 8 8 8 9 10 11 11 12 12 13 13 14 15 15 14 14 13 14 16 18 17 17 18 18 19 21 21 22 22 20 18 16 16 20 25 25 23 23 22 20 16 13 11 10 9 8 7 7 9 12 14 14 16 17 17 16 16 16 15 17 19 20 20 20 19 19 20 20 19 19 20 21 22
2 2 2 5 4 2 2 3 3 2 2 6 8 8 8 8 8 9 10 11 13 14 14 14 14 14 15 14 13 13 13 14 15 14 14 16 17 18 19 20 21 22 23 21 18 16 16 19 23 23 21 19 18 17 17 17 16 13 10 7 6 7 9 11 12 14 16 15 13 11 10 8 9 13 15 16 16 15 14 13 13 13 15 16 14 12
2 3 4 3 3 2 1 2 4 2 1 4 7 7 7 8 8 9 10 11 13 13 13 14 14 13 13 13 13 13 12 12 13 13 13 14 15 15 16 17 17 17 18 19 20 19 18 18 20 22 22 20 16 13 12 12 12 13 12 10 6 4 4 5 7 7 7 7 6 5 4 4 6 8 7 7 7 6 5 5 4 5 8 10 9 8
6 6 5 3 3 3 1 2 5 3 2 3 6 6 7 7 8 9 10 10 11 12 11 12 13 13 13 13 14 14 13 12 11 12 12 13 14 14 15 17 17 15 15 16 16 16 17 17 18 21 23 21 18 16 15 13 11 10 11 10 8 5 3 1 3 7 9 7 6 6 8 9 8 8 8 7 6 6 5 3 2 1 3 6 8 9
Wind_Direction
220 218 208 222 217 226 224 235 243 254 277 261 228 267 323 319 287 271 237 206 186 197 195 198 208 165 171 185 169 181 186 194 203 192 193 198 192 188 187 183 177 174 170 168 169 167 163 160 162 162 159 161 162 162 164 164 164 163 162 156 160 163 151 151 152 150 150 141 146 149 137 136 135 126 117 103 91 91 81 68 67 51 26 27 59 82
210 216 217 211 288 341 316 320 322 299 290 296 315 314 291 239 247 262 285 256 190 196 210 198 208 179 184 196 169 176 185 199 208 194 196 202 189 189 194 185 173 168 169 169 167 167 163 161 165 163 161 166 165 165 168 169 171 166 160 158 165 163 155 158 157 153 155 144 142 149 146 144 139 127 117 110 99 81 58 42 72 88 60 29 41 60
195 203 191 148 65 5 329 339 333 287 284 323 298 236 200 189 200 184 249 255 208 185 216 208 208 163 187 206 166 171 188 199 206 198 201 205 190 188 195 188 172 164 169 172 169 169 166 165 168 165 166 170 168 170 169 169 173 171 166 163 172 171 158 162 163 160 164 156 149 151 150 147 139 137 137 128 106 90 73 46 56 86 95 74 52 54
192 215 189 127 101 61 292 295 274 266 251 225 244 233 191 191 202 170 198 220 207 198 211 197 194 113 181 210 168 176 194 195 201 199 202 207 196 191 195 190 176 167 172 174 172 171 168 169 170 167 170 172 171 172 170 171 172 175 178 172 179 173 159 161 160 162 172 167 161 158 154 151 148 152 150 127 100 96 77 50 49 59 74 82 86 87
166 182 191 169 158 187 209 201 213 238 217 209 237 245 224 202 204 207 193 186 184 225 215 174 186 162 176 203 180 180 190 192 198 197 202 207 199 195 195 192 181 171 172 176 175 173 171 172 173 172 173 174 176 173 173 179 174 177 181 172 177 169 163 173 164 162 176 170 165 165 160 158 155 149 138 127 114 109 92 64 60 62 63 73 90 96
132 154 175 181 187 200 209 194 204 229 229 229 252 243 244 237 214 215 208 180 178 222 202 181 206 182 159 200 205 182 187 195 195 195 203 204 198 198 197 193 187 176 173 177 178 176 174 175 176 176 176 175 177 175 177 180 175 181 180 169 176 171 166 179 173 167 174 169 167 171 169 162 157 150 146 149 132 115 111 97 83 80 75 76 88 92
137 159 174 193 201 198 205 214 225 239 246 275 265 231 234 242 224 223 216 186 183 232 188 187 237 217 157 210 216 198 198 202 199 197 201 200 195 197 198 194 190 181 177 181 182 178 176 177 178 179 179 178 178 177 178 178 174 179 179 172 179 179 173 176 177 179 180 174 170 175 176 164 160 160 158 159 142 132 130 100 72 77 81 77 89 95
204 219 203 203 204 196 203 220 228 227 225 251 244 222 228 228 200 224 243 206 161 224 221 236 249 255 226 213 207 207 208 202 205 205 199 200 196 193 197 196 190 184 181 184 183 180 179 180 181 182 181 181 180 178 179 179 176 178 180 179 181 183 182 178 179 187 189 185 177 177 178 168 170 171 164 158 149 153 150 117 73 63 80 81 84 88
197 208 201 205 212 214 209 226 236 228 230 251 246 210 209 222 202 207 246 346 21 348 214 224 251 261 281 221 202 210 217 208 206 205 198 200 196 192 197 195 192 189 185 186 182 180 182 182 183 184 182 184 182 179 181 181 178 180 181 181 182 183 184 181 182 189 192 187 177 175 177 175 180 177 166 163 160 173 172 150 162 127 76 79 85 85
234 231 227 213 210 217 221 237 238 235 239 257 265 219 189 172 11 24 114 90 14 333 232 219 226 232 241 227 209 205 217 214 206 201 200 202 195 192 197 196 194 191 185 185 183 182 185 184 185 186 183 184 185 182 184 182 178 181 182 182 183 183 184 185 185 187 187 180 173 176 180 182 188 181 168 169 177 186 177 160 171 144 67 49 77 85
277 275 262 223 184 195 209 232 230 232 249 261 269 251 165 82 59 14 89 114 83 48 259 243 220 226 237 197 200 201 210 210 204 199 198 201 198 193 193 194 194 190 187 187 185 184 186 186 186 186 184 185 186 185 185 185 181 182 185 184 182 183 186 188 186 187 187 182 181 183 184 186 191 185 175 177 188 193 176 172 184 132 117 258 81 88
268 268 258 162 191 203 186 230 236 234 255 273 306 349 8 57 78 38 81 121 33 192 263 252 175 354 293 205 193 205 210 206 201 203 197 195 199 196 191 191 193 191 190 189 186 184 184 186 188 188 187 186 185 186 186 185 184 184 187 186 184 188 191 190 188 188 191 190 189 190 189 191 192 187 186 186 189 196 183 185 210 153 158 200 151 98
265 252 193 143 191 181 138 233 253 240 257 299 40 24 348 328 4 356 210 235 257 256 266 160 111 80 275 249 218 200 202 207 201 198 196 194 198 197 190 189 193 193 189 190 191 187 183 184 189 190 189 187 186 188 188 186 185 186 188 188 189 191 191 193 191 189 194 195 194 195 194 195 195 190 192 191 189 196 192 188 197 190 186 208 189 98
257 235 185 157 161 152 152 187 209 222 262 59 88 77 31 351 295 254 226 347 290 284 275 135 136 155 246 253 216 192 197 212 219 203 191 192 196 194 190 188 192 193 189 192 192 186 184 185 189 190 190 189 188 188 189 187 187 189 190 192 195 193 191 195 194 190 195 198 197 200 199 196 196 195 197 196 193 198 197 198 203 195 203 223 229 151
280 243 229 179 163 187 188 185 189 183 177 141 130 125 123 204 242 259 229 191 259 280 185 153 158 167 199 192 173 180 187 192 228 229 192 187 191 190 192 189 190 192 189 193 192 187 188 189 189 190 187 188 189 188 188 187 187 191 194 195 196 195 194 196 197 193 195 200 201 200 198 198 198 199 201 199 198 203 202 206 211 199 206 219 205 198
301 298 289 301 247 213 203 179 197 203 166 159 142 114 136 210 216 284 319 318 322 314 267 274 19 52 151 193 178 176 170 166 213 232 197 187 186 183 191 191 189 191 188 194 197 191 189 189 188 189 186 187 190 188 188 189 189 192 194 195 194 195 197 199 200 198 196 200 203 200 196 199 201 201 203 202 201 206 207 210 215 208 210 208 193 209
232 248 258 264 232 225 232 186 187 227 193 159 170 171 198 204 198 245 314 345 6 41 352 260 181 76 31 290 162 146 159 170 182 198 198 194 184 177 187 193 193 192 188 192 196 191 186 185 186 187 186 187 190 189 188 189 192 193 192 195 196 197 201 202 202 202 199 199 202 202 200 201 204 204 206 209 205 204 207 208 214 218 216 207 196 210
226 244 220 221 213 202 210 187 175 212 206 153 214 230 196 217 228 222 221 327 332 91 117 264 138 111 137 289 62 98 135 177 165 175 193 188 182 182 186 191 193 194 190 189 192 190 185 183 184 186 186 188 191 192 191 190 194 196 194 196 197 196 199 202 204 204 203 202 201 202 202 202 206 207 208 215 212 206 210 211 214 218 219 223 215 212
226 274 220 225 236 176 171 198 191 212 213 166 120 273 289 300 296 257 206 244 301 60 61 286 312 98 133 185 124 110 108 227 151 164 187 179 178 186 188 191 192 194 193 189 190 191 188 183 184 186 187 189 191 192 194 193 194 196 194 195 198 198 200 202 205 206 206 205 202 202 204 203 205 206 207 215 214 207 213 218 217 216 219 232 229 214
226 299 243 227 259 163 170 223 184 206 234 212 218 212 345 308 335 330 292 256 120 54 46 270 247 105 99 180 164 145 193 249 116 147 196 176 173 183 185 188 192 195 193 191 190 190 189 185 183 186 188 188 190 190 194 195 193 196 196 196 201 202 201 201 203 205 206 206 202 201 205 205 204 206 207 210 213 212 216 217 217 219 222 233 233 220
245 358 300 239 290 209 178 247 143 219 247 224 266 231 153 284 342 344 297 329 59 85 81 267 275 53 249 219 137 145 201 208 124 162 212 162 168 187 187 185 190 193 192 194 195 190 188 185 181 185 188 189 190 190 192 195 193 196 197 195 201 203 200 201 202 204 206 205 203 202 205 205 204 205 205 207 212 214 216 215 216 223 228 235 236 225
46 322 304 7 349 311 319 346 206 242 236 170 241 268 160 230 323 319 298 353 331 144 134 189 247 266 250 204 108 174 227 262 113 164 237 160 175 186 180 181 185 188 187 191 197 191 183 182 179 183 187 188 192 190 190 194 193 196 198 196 201 205 204 203 201 202 204 202 204 205 206 207 206 205 204 208 212 213 214 216 217 219 225 235 238 229
14 290 265 71 342 295 298 299 265 254 245 212 228 269 117 145 129 264 276 7 316 318 125 162 163 227 276 26 359 200 158 329 12 217 226 196 206 195 169 174 181 184 184 187 198 195 182 179 180 182 186 189 194 194 192 196 196 196 200 200 201 204 206 204 201 202 204 201 203 207 207 207 207 206 206 208 211 213 215 217 219 218 222 233 236 232
341 292 258 84 291 270 261 256 260 262 262 255 256 279 265 202 171 247 264 192 282 321 21 221 123 323 353 2 331 357 87 92 334 281 241 107 281 258 177 166 175 179 181 183 195 199 185 181 182 183 189 192 197 198 196 199 200 198 202 204 203 204 206 204 200 201 204 203 202 205 206 207 208 208 208 208 210 213 216 217 219 220 224 232 233 232
304 309 11 20 327 288 266 242 267 306 334 312 276 274 275 242 182 250 285 235 251 354 357 313 132 142 15 6 331 345 31 66 27 315 326 116 200 270 54 136 172 171 180 184 189 198 190 185 185 187 193 196 197 200 198 201 202 200 203 205 203 204 205 204 201 200 203 204 203 203 205 205 207 209 209 210 210 212 215 216 219 220 224 231 233 230
295 311 325 340 330 360 312 267 319 355 350 310 274 260 287 281 163 193 286 267 289 6 351 317 47 122 54 4 334 334 335 44 59 320 335 130 181 232 71 124 186 168 182 185 183 196 198 193 192 191 196 198 198 201 200 201 201 199 203 205 204 205 205 204 202 201 202 204 204 204 204 204 206 208 209 210 211 212 215 217 219 220 223 227 230 230
283 302 5 85 316 305 322 269 268 289 286 292 298 302 310 292 191 172 273 302 354 339 328 7 65 61 329 304 295 305 322 45 107 324 14 76 150 151 137 176 191 176 187 188 188 202 204 201 197 193 198 201 201 203 202 200 200 199 201 203 204 206 205 203 202 201 201 203 204 205 205 205 206 207 209 210 211 212 216 219 220 221 222 225 229 229
279 309 46 134 207 253 282 254 238 257 257 258 271 282 297 291 278 261 279 200 115 301 319 79 100 329 323 28 6 302 329 11 246 2 51 58 11 355 175 190 182 179 189 190 196 206 212 211 202 197 202 204 202 205 204 198 197 199 202 204 205 205 204 204 202 201 201 203 205 206 206 207 208 208 209 210 211 213 216 219 221 222 223 224 228 231
314 341 345 300 252 242 258 253 234 249 256 259 280 293 284 304 337 320 286 188 156 252 255 276 298 343 359 16 25 347 333 310 282 126 103 107 143 238 254 234 167 165 185 195 201 205 213 221 216 206 205 205 205 207 205 199 197 200 204 204 204 204 205 205 202 200 201 203 206 208 208 209 210 210 211 211 212 215 217 218 220 223 225 226 228 231
353 6 354 335 315 293 285 283 274 272 280 317 336 328 302 315 346 330 326 13 325 280 301 323 330 30 31 345 346 6 335 317 311 149 140 154 182 212 229 201 169 181 196 205 214 214 217 224 225 217 207 205 209 208 206 203 198 200 206 205 203 205 205 205 204 201 201 203 206 209 210 211 212 212 213 213 213 216 219 220 221 222 225 227 230 233
3 349 360 355 335 312 298 286 273 278 300 339 341 332 323 326 343 350 2 17 352 330 357 9 9 41 24 337 336 14 15 335 327 354 58 120 279 311 327 169 191 219 222 209 210 215 217 220 223 220 211 209 210 202 201 205 200 201 209 208 204 203 202 203 206 204 203 205 207 209 211 212 214 214 215 216 216 217 220 222 223 224 226 227 229 233
354 336 353 9 345 311 303 298 297 307 319 333 358 356 347 349 7 12 19 26 15 356 355 10 21 20 4 348 339 346 358 344 329 345 344 301 299 346 335 294 253 254 257 246 234 225 219 218 219 220 216 217 218 208 204 208 207 206 209 208 205 203 201 203 206 206 205 206 207 209 211 212 215 216 217 217 219 220 221 222 225 227 228 228 229 231
320 338 355 25 336 317 344 350 337 324 318 335 25 10 354 6 23 25 30 29 24 15 4 12 21 3 351 348 337 336 345 337 331 343 338 327 327 296 289 295 277 214 209 239 240 238 235 226 223 225 226 225 223 216 210 209 211 212 212 209 204 202 202 205 208 208 208 207 207 210 211 213 215 217 218 219 220 222 223 223 225 228 230 231 232 233
245 225 272 73 238 316 3 14 350 318 294 354 27 14 7 22 32 39 44 31 24 26 21 16 13 3 356 350 342 337 335 330 334 356 357 352 339 308 292 323 335 309 205 224 222 222 231 232 228 230 232 227 222 216 211 208 209 212 214 209 203 202 203 204 207 210 210 209 209 210 212 214 215 217 220 221 221 221 223 225 227 228 231 233 234 237
253 220 261 258 211 303 354 37 8 324 105 113 51 23 19 27 38 58 70 44 26 22 18 15 8 358 354 351 347 342 337 335 337 357 4 353 339 337 347 2 357 334 308 287 235 217 216 220 225 229 228 222 218 213 208 206 206 206 209 208 204 204 203 203 205 209 212 213 211 211 214 215 216 218 219 221 222 222 223 225 227 228 230 233 234 236
237 219 186 269 224 248 292 101 96 325 64 92 60 25 16 21 25 38 66 47 26 17 13 8 1 356 353 350 349 347 340 334 335 2 16 3 350 354 355 348 348 341 322 321 314 275 237 222 220 225 224 218 215 210 206 207 207 206 206 205 204 205 204 206 208 208 213 217 216 215 215 216 218 219 220 221 222 223 224 225 226 228 230 233 236 237
220 225 173 247 240 220 255 253 170 146 57 55 34 13 6 6 360 353 65 46 23 13 7 359 356 358 357 353 349 346 342 336 340 20 23 11 0 347 336 335 342 339 325 308 297 289 282 259 230 224 222 216 210 207 207 209 208 208 207 206 210 213 209 207 210 211 214 218 219 219 219 219 220 221 221 222 222 223 226 226 226 228 229 232 235 238
166 302 268 249 235 226 259 268 251 188 136 41 17 3 355 350 344 331 169 47 14 1 356 355 357 355 353 355 352 345 341 340 6 34 14 359 351 344 333 327 327 321 320 316 306 298 304 292 256 234 233 224 209 205 211 217 212 209 208 207 212 215 212 211 217 219 218 218 219 222 222 223 224 224 224 224 223 224 226 227 228 229 230 231 233 236
49 5 331 270 248 243 255 268 295 262 138 28 359 352 346 335 331 326 307 24 8 351 341 342 0 1 353 356 357 353 356 10 13 12 3 351 348 358 2 358 352 344 333 324 321 330 325 293 274 256 250 256 235 215 215 221 213 209 212 211 210 214 214 213 216 219 220 220 222 225 226 226 226 227 227 227 226 226 226 227 229 230 230 232 234 237
30 10 351 280 269 299 287 279 343 96 57 357 340 340 340 324 307 290 263 7 29 355 335 337 357 5 356 355 2 6 17 17 350 350 356 351 346 354 5 8 5 357 347 340 341 345 337 316 304 284 235 240 253 237 221 217 212 214 219 215 210 215 217 215 217 224 226 223 222 227 231 229 228 228 229 230 229 228 228 228 229 231 232 234 236 238
21 347 294 236 316 2 335 324 83 125 19 342 335 341 340 319 285 245 291 329 3 355 341 350 0 4 3 4 12 11 5 4 353 349 3 9 3 359 1 4 8 9 5 359 348 339 339 337 328 316 278 251 260 252 231 219 215 218 224 223 218 217 215 214 219 224 223 221 224 228 231 231 230 231 232 233 232 232 231 230 230 231 233 235 236 236
4 314 334 35 6 354 332 12 58 109 20 343 335 348 355 335 267 15 344 338 350 355 13 31 19 9 7 10 15 10 4 11 10 5 11 17 17 14 8 359 356 0 5 1 350 343 341 331 319 319 317 308 278 260 244 223 216 218 224 229 228 222 215 214 216 218 220 226 229 228 228 231 233 232 234 234 233 233 234 234 234 233 234 234 234 234
4 336 13 32 356 331 3 44 56 109 9 351 343 358 18 19 331 320 331 355 9 2 6 33 38 26 14 8 10 13 14 19 22 20 19 21 24 26 23 16 10 8 7 0 352 355 355 334 319 316 314 309 289 272 254 229 220 221 221 223 226 226 224 223 223 223 223 223 224 224 227 233 236 234 234 235 234 233 233 233 235 236 235 234 235 235
11 354 8 35 14 348 6 39 34 290 343 360 7 29 34 25 8 345 348 12 19 5 0 17 34 36 28 18 19 26 30 31 29 26 25 26 27 29 30 28 25 19 16 10 355 341 342 331 326 331 328 312 277 254 251 240 233 230 226 225 226 225 224 225 228 228 221 216 218 223 226 230 235 236 237 237 237 237 235 233 234 235 236 237 237 236
28 34 60 50 49 56 70 76 33 317 338 16 36 43 31 19 11 8 16 26 23 14 12 16 24 31 32 29 28 29 35 44 45 39 33 28 28 32 35 35 32 26 23 22 14 357 347 336 320 318 328 333 319 270 263 261 251 244 241 241 237 229 223 223 226 228 225 222 223 225 225 227 230 231 233 233 233 234 233 232 231 230 232 238 240 238
52 58 73 70 100 112 94 70 61 28 13 25 40 42 33 26 19 17 22 24 23 25 26 24 22 23 27 31 30 25 26 34 43 49 45 37 37 41 43 45 46 41 35 35 35 30 26 18 357 325 326 345 338 292 279 273 262 262 263 260 259 254 237 227 229 232 231 228 225 222 221 223 226 230 231 233 237 240 242 244 244 238 237 244 250 251
21 20 38 58 100 128 83 48 56 57 26 16 26 35 32 29 27 24 22 20 24 32 35 35 34 30 28 29 30 28 26 26 30 40 45 43 44 44 43 46 49 48 46 47 47 46 45 43 37 30 26 23 13 333 304 297 290 294 293 280 273 264 242 231 237 241 238 235 236 237 234 230 232 239 243 244 248 250 252 257 260 254 249 252 254 253
348 344 35 78 67 58 74 65 74 90 49 23 25 26 23 26 29 30 30 28 28 32 35 37 39 37 35 35 34 35 33 30 29 33 39 40 40 39 40 40 41 44 49 52 53 54 53 50 47 45 43 38 36 35 26 6 342 326 315 303 295 279 257 246 248 252 250 249 252 256 254 243 235 239 247 254 260 264 266 265 263 256 254 255 250 245
279 311 51 96 99 78 76 57 51 86 69 27 27 27 25 29 32 32 33 33 30 29 30 32 36 38 37 36 36 37 37 35 33 32 34 34 31 30 32 33 34 40 46 49 51 55 55 48 41 38 40 41 40 46 50 47 39 28 13 352 328 303 279 262 256 256 254 253 255 260 262 254 245 247 254 262 268 272 275 276 268 252 246 248 246 243
15 10 18 68 97 80 37 346 11 41 69 13 21 30 31 30 36 36 32 31 31 29 28 29 31 32 35 33 31 32 34 33 31 31 31 28 23 19 19 18 19 26 31 33 38 45 51 52 44 35 32 32 30 34 42 45 44 41 34 22 5 334 295 273 275 280 269 257 266 281 275 251 246 247 250 256 255 249 260 292 294 245 233 247 259 261
39 28 18 34 67 65 67 48 48 76 119 28 23 37 40 35 39 39 31 26 28 28 29 33 31 29 32 32 28 29 32 31 29 29 27 22 20 22 21 17 16 17 14 11 15 20 27 35 36 33 33 33 31 32 34 33 33 34 34 33 32 29 36 86 66 49 51 65 85 94 102 115 129 128 107 94 107 125 112 61 23 203 235 270 275 267
Height
1470 1472 1473 1471 1468 1464 1464 1466 1467 1468 1471 1469 1470 1479 1484 1486 1484 1477 1472 1465 1463 1471 1474 1473 1475 1478 1482 1481 1481 1486 1487 1488 1489 1489 1491 1492 1493 1495 1497 1499 1501 1504 1505 1507 1509 1511 1513 1514 1516 1518 1520 1521 1523 1524 1526 1527 1527 1528 1529 1530 1530 1531 1532 1534 1534 1535 1536 1537 1538 1539 1540 1540 1541 1541 1542 1542 1541 1541 1541 1540 1539 1539 1539 1537 1536 1536
1467 1474 1474 1469 1468 1468 1468 1470 1472 1474 1476 1475 1479 1488 1491 1493 1491 1482 1478 1470 1464 1471 1474 1472 1474 1477 1479 1478 1478 1482 1486 1487 1487 1487 1489 1490 1491 1494 1496 1498 1501 1503 1505 1507 1509 1511 1512 1514 1516 1517 1519 1520 1522 1524 1525 1526 1527 1527 1528 1529 1530 1531 1532 1533 1534 1535 1536 1537 1538 1539 1540 1541 1541 1542 1542 1542 1542 1542 1541 1541 1540 1540 1540 1539 1537 1537
1465 1473 1473 1469 1470 1473 1473 1474 1479 1479 1480 1486 1490 1490 1489 1487 1484 1483 1486 1477 1465 1471 1477 1473 1475 1480 1479 1476 1477 1481 1484 1486 1486 1486 1488 1489 1490 1493 1495 1496 1499 1502 1504 1506 1508 1510 1512 1514 1515 1517 1518 1520 1521 1523 1524 1525 1526 1527 1528 1529 1530 1531 1532 1533 1534 1536 1537 1537 1538 1539 1540 1541 1541 1542 1542 1542 1542 1542 1542 1541 1541 1540 1540 1539 1538 1537
1468 1471 1468 1468 1471 1476 1479 1481 1485 1483 1486 1495 1489 1480 1479 1475 1474 1480 1484 1476 1465 1467 1471 1472 1479 1486 1484 1479 1477 1480 1481 1483 1485 1486 1487 1488 1489 1491 1494 1495 1498 1500 1502 1505 1507 1509 1511 1513 1515 1516 1517 1519 1520 1522 1523 1524 1525 1526 1527 1529 1530 1531 1532 1533 1534 1536 1537 1538 1539 1540 1540 1541 1541 1542 1542 1542 1543 1543 1543 1542 1541 1541 1540 1539 1539 1538
1468 1469 1465 1468 1473 1478 1481 1485 1489 1486 1487 1489 1478 1470 1471 1469 1467 1469 1469 1467 1467 1468 1465 1471 1486 1489 1484 1484 1479 1477 1480 1481 1483 1485 1487 1487 1488 1491 1493 1494 1497 1499 1501 1504 1505 1508 1510 1512 1514 1515 1516 1518 1519 1521 1522 1523 1524 1525 1526 1528 1529 1530 1532 1533 1534 1535 1536 1538 1539 1539 1540 1541 1541 1542 1542 1543 1543 1543 1543 1543 1542 1541 1541 1540 1539 1538
1462 1463 1463 1467 1470 1471 1473 1477 1480 1477 1476 1477 1468 1462 1464 1463 1462 1463 1463 1464 1474 1480 1468 1471 1490 1491 1482 1483 1480 1477 1479 1480 1480 1482 1484 1486 1487 1490 1492 1494 1496 1498 1501 1503 1505 1506 1508 1510 1512 1514 1516 1517 1518 1519 1521 1522 1523 1524 1525 1528 1529 1530 1531 1533 1534 1535 1536 1537 1538 1538 1539 1540 1541 1542 1543 1543 1543 1543 1544 1543 1543 1542 1541 1540 1540 1539
1460 1459 1460 1463 1465 1465 1468 1471 1469 1466 1472 1477 1465 1457 1461 1461 1461 1463 1461 1464 1480 1486 1470 1467 1486 1493 1487 1482 1479 1478 1478 1478 1478 1479 1481 1483 1485 1488 1491 1493 1495 1497 1500 1502 1504 1505 1507 1509 1511 1513 1514 1516 1517 1518 1519 1521 1522 1523 1525 1527 1529 1530 1531 1532 1533 1534 1535 1536 1537 1538 1539 1540 1541 1542 1542 1543 1544 1543 1543 1543 1543 1543 1542 1541 1540 1540
1459 1459 1459 1460 1462 1463 1466 1467 1463 1461 1471 1473 1458 1454 1459 1459 1464 1470 1466 1467 1476 1478 1471 1468 1476 1489 1492 1482 1476 1477 1477 1477 1478 1477 1478 1479 1482 1485 1489 1491 1493 1495 1498 1500 1502 1504 1506 1508 1510 1512 1514 1515 1516 1518 1519 1519 1521 1522 1524 1526 1528 1529 1530 1531 1532 1533 1534 1535 1536 1538 1539 1540 1541 1542 1542 1543 1544 1544 1543 1544 1544 1543 1543 1542 1541 1540
1455 1458 1459 1459 1461 1462 1461 1461 1459 1459 1466 1463 1451 1452 1456 1457 1467 1477 1480 1482 1478 1477 1482 1479 1477 1490 1496 1481 1473 1476 1477 1477 1476 1475 1476 1477 1479 1483 1485 1488 1491 1493 1496 1498 1500 1502 1504 1506 1508 1511 1513 1514 1515 1517 1518 1518 1520 1521 1523 1525 1527 1528 1529 1530 1531 1532 1533 1535 1536 1537 1538 1540 1541 1541 1542 1543 1543 1544 1543 1544 1544 1544 1543 1543 1542 1541
1453 1453 1453 1453 1458 1459 1458 1457 1457 1459 1462 1456 1447 1449 1454 1462 1473 1478 1484 1488 1485 1485 1489 1484 1480 1491 1498 1488 1479 1480 1479 1476 1473 1472 1474 1474 1476 1480 1483 1486 1489 1491 1493 1496 1498 1500 1502 1505 1507 1509 1511 1513 1515 1516 1517 1518 1519 1521 1521 1523 1525 1527 1528 1529 1530 1532 1533 1534 1535 1536 1538 1539 1540 1541 1542 1543 1543 1543 1543 1544 1544 1544 1544 1543 1543 1542
1452 1449 1447 1446 1452 1455 1454 1455 1455 1457 1457 1451 1449 1452 1457 1467 1474 1476 1477 1477 1486 1495 1488 1476 1473 1482 1495 1491 1480 1477 1474 1470 1470 1470 1471 1472 1473 1476 1480 1483 1486 1489 1492 1494 1496 1499 1501 1504 1505 1508 1509 1511 1513 1514 1515 1516 1518 1519 1520 1522 1524 1526 1527 1528 1530 1531 1532 1534 1535 1536 1537 1539 1540 1540 1541 1542 1543 1543 1543 1544 1544 1544 1544 1544 1543 1543
1453 1451 1445 1442 1446 1448 1451 1455 1454 1453 1452 1452 1457 1460 1467 1474 1476 1480 1481 1478 1492 1500 1481 1466 1470 1485 1496 1486 1472 1470 1466 1463 1466 1467 1467 1469 1470 1473 1476 1481 1484 1486 1489 1491 1494 1496 1499 1502 1504 1506 1508 1509 1511 1513 1514 1515 1516 1518 1519 1520 1522 1524 1526 1527 1529 1530 1531 1533 1534 1535 1537 1538 1539 1540 1541 1542 1542 1543 1543 1543 1544 1544 1544 1544 1544 1543
1456 1449 1441 1443 1445 1445 1453 1460 1458 1456 1454 1458 1465 1470 1483 1491 1489 1492 1490 1484 1489 1486 1468 1462 1475 1493 1496 1477 1463 1464 1461 1459 1459 1459 1462 1465 1467 1470 1473 1477 1481 1483 1486 1488 1491 1493 1496 1499 1501 1504 1506 1507 1509 1511 1512 1513 1515 1517 1518 1519 1520 1522 1524 1526 1527 1529 1530 1531 1533 1534 1536 1537 1538 1539 1540 1541 1542 1542 1543 1543 1543 1544 1544 1544 1544 1543
1461 1450 1441 1445 1448 1446 1453 1461 1465 1465 1462 1467 1472 1481 1501 1507 1505 1502 1491 1487 1490 1476 1459 1459 1470 1486 1487 1467 1455 1457 1456 1455 1454 1453 1458 1461 1464 1468 1470 1474 1478 1480 1483 1485 1487 1491 1493 1496 1499 1501 1503 1505 1507 1509 1510 1512 1514 1515 1516 1518 1519 1521 1523 1524 1526 1528 1529 1530 1532 1533 1534 1536 1537 1538 1539 1540 1541 1542 1543 1543 1543 1544 1544 1543 1544 1543
1470 1464 1451 1449 1452 1450 1449 1453 1460 1462 1465 1471 1468 1478 1500 1505 1502 1497 1486 1492 1498 1479 1462 1460 1466 1479 1480 1463 1450 1450 1451 1451 1453 1453 1455 1458 1462 1465 1468 1471 1475 1477 1480 1483 1484 1488 1490 1493 1496 1498 1501 1503 1505 1507 1508 1510 1512 1513 1515 1516 1518 1519 1521 1523 1524 1526 1528 1529 1531 1532 1533 1535 1536 1537 1538 1539 1541 1542 1542 1543 1543 1543 1543 1543 1544 1543
1476 1473 1453 1446 1447 1444 1445 1446 1447 1452 1462 1469 1466 1478 1491 1484 1481 1482 1473 1475 1481 1478 1473 1468 1466 1465 1459 1451 1445 1446 1450 1451 1455 1455 1454 1457 1459 1463 1466 1468 1472 1475 1477 1481 1482 1485 1488 1490 1494 1496 1498 1501 1503 1505 1506 1508 1510 1511 1513 1514 1516 1518 1520 1521 1523 1524 1526 1528 1529 1531 1532 1533 1535 1536 1537 1538 1540 1541 1541 1542 1542 1543 1543 1543 1543 1543
1479 1474 1454 1448 1446 1440 1442 1442 1440 1449 1459 1462 1466 1474 1469 1456 1461 1474 1475 1469 1471 1484 1486 1473 1468 1462 1455 1452 1446 1445 1452 1456 1458 1457 1455 1457 1457 1460 1464 1465 1469 1472 1474 1478 1480 1482 1486 1488 1492 1495 1496 1499 1500 1502 1504 1505 1507 1509 1511 1512 1514 1516 1518 1519 1521 1522 1524 1526 1527 1529 1530 1532 1533 1535 1536 1537 1538 1539 1540 1541 1542 1542 1542 1542 1543 1543
1465 1465 1452 1446 1447 1440 1439 1442 1440 1443 1449 1457 1464 1459 1451 1454 1459 1463 1477 1482 1480 1490 1488 1471 1468 1470 1469 1466 1452 1446 1454 1458 1460 1460 1457 1458 1457 1459 1462 1464 1467 1469 1471 1476 1478 1481 1484 1487 1491 1493 1494 1497 1498 1500 1502 1504 1505 1506 1509 1511 1512 1514 1516 1517 1519 1520 1522 1524 1525 1527 1529 1530 1532 1533 1535 1535 1536 1538 1539 1540 1540 1541 1541 1541 1542 1542
1452 1463 1455 1441 1442 1440 1436 1443 1449 1445 1440 1447 1454 1447 1451 1471 1472 1462 1473 1487 1489 1493 1491 1478 1470 1468 1468 1464 1454 1451 1454 1454 1457 1458 1455 1455 1456 1457 1460 1462 1465 1467 1469 1473 1476 1479 1482 1484 1488 1491 1492 1494 1496 1498 1501 1503 1504 1504 1506 1509 1510 1512 1513 1515 1517 1519 1520 1522 1523 1525 1526 1528 1530 1531 1533 1534 1535 1536 1537 1538 1539 1540 1540 1541 1541 1541
1447 1463 1463 1442 1436 1440 1439 1444 1454 1455 1445 1440 1445 1447 1452 1462 1465 1462 1464 1472 1484 1496 1500 1490 1479 1470 1461 1454 1451 1453 1452 1450 1453 1456 1453 1451 1452 1456 1458 1460 1463 1465 1467 1470 1473 1477 1480 1482 1485 1488 1490 1492 1494 1496 1498 1500 1502 1502 1504 1507 1508 1510 1511 1513 1515 1516 1518 1520 1521 1523 1524 1526 1528 1529 1531 1533 1534 1535 1536 1537 1538 1538 1539 1539 1540 1540
1447 1458 1464 1447 1438 1446 1451 1449 1452 1456 1451 1449 1454 1457 1458 1455 1456 1461 1460 1457 1469 1492 1506 1501 1493 1481 1461 1447 1447 1450 1449 1447 1449 1453 1451 1449 1452 1455 1456 1458 1461 1463 1466 1468 1471 1474 1477 1480 1483 1486 1488 1491 1492 1494 1495 1498 1500 1501 1502 1505 1507 1508 1509 1511 1513 1514 1516 1518 1519 1521 1522 1524 1526 1527 1529 1531 1532 1533 1534 1535 1536 1537 1538 1538 1538 1539
1450 1456 1461 1455 1451 1456 1454 1444 1443 1447 1446 1452 1459 1456 1456 1456 1460 1471 1474 1461 1456 1473 1490 1495 1501 1492 1462 1445 1448 1448 1447 1446 1446 1449 1450 1450 1453 1453 1454 1457 1458 1460 1464 1466 1468 1472 1475 1477 1480 1484 1487 1489 1491 1491 1493 1496 1498 1499 1501 1502 1505 1506 1507 1509 1511 1512 1514 1515 1517 1519 1520 1522 1523 1525 1527 1529 1530 1531 1532 1533 1534 1536 1536 1536 1537 1538
1447 1451 1457 1460 1458 1456 1450 1441 1441 1442 1439 1446 1451 1448 1449 1453 1461 1475 1482 1470 1459 1462 1466 1473 1489 1483 1453 1444 1451 1449 1448 1449 1449 1450 1450 1450 1451 1451 1453 1456 1458 1460 1462 1465 1468 1471 1473 1475 1478 1482 1485 1487 1489 1489 1491 1493 1495 1498 1499 1501 1503 1504 1505 1507 1509 1510 1512 1513 1515 1516 1518 1520 1521 1523 1525 1526 1528 1529 1530 1531 1532 1534 1535 1535 1535 1536
1449 1451 1458 1464 1458 1449 1445 1442 1440 1439 1438 1445 1448 1445 1448 1451 1455 1463 1464 1460 1463 1465 1463 1470 1483 1473 1450 1446 1449 1446 1448 1451 1451 1451 1449 1451 1454 1453 1454 1455 1457 1461 1462 1465 1468 1470 1472 1474 1476 1480 1483 1484 1486 1487 1489 1491 1492 1495 1498 1499 1501 1502 1503 1505 1507 1508 1509 1510 1512 1514 1516 1518 1519 1520 1522 1524 1525 1527 1528 1529 1531 1532 1533 1533 1534 1534
1455 1455 1460 1472 1475 1467 1461 1457 1453 1449 1447 1452 1452 1448 1448 1447 1451 1458 1454 1454 1464 1464 1460 1473 1483 1470 1454 1449 1447 1445 1447 1448 1450 1451 1449 1452 1457 1456 1457 1458 1459 1461 1462 1465 1468 1469 1472 1474 1475 1478 1480 1481 1483 1484 1486 1489 1490 1492 1495 1497 1498 1500 1501 1503 1505 1506 1507 1508 1510 1511 1513 1515 1516 1518 1519 1521 1523 1524 1526 1527 1528 1530 1531 1532 1532 1533
1455 1456 1458 1473 1486 1486 1481 1475 1468 1461 1455 1453 1451 1448 1447 1447 1454 1463 1460 1460 1469 1464 1458 1467 1473 1464 1454 1452 1452 1449 1447 1448 1450 1451 1450 1453 1457 1457 1459 1462 1462 1461 1462 1464 1466 1468 1470 1472 1474 1476 1477 1479 1481 1482 1484 1486 1488 1490 1493 1495 1496 1498 1499 1500 1502 1503 1504 1505 1507 1508 1510 1512 1514 1515 1517 1519 1520 1522 1523 1525 1526 1528 1529 1530 1531 1531
1454 1455 1456 1466 1474 1474 1472 1467 1460 1458 1458 1458 1453 1449 1450 1450 1452 1456 1459 1464 1467 1465 1463 1462 1461 1462 1458 1455 1455 1451 1449 1450 1450 1450 1451 1454 1458 1460 1461 1463 1462 1461 1462 1464 1466 1468 1469 1470 1472 1473 1475 1477 1479 1480 1482 1483 1486 1488 1491 1493 1494 1496 1497 1498 1500 1501 1502 1503 1504 1505 1507 1509 1511 1512 1514 1516 1518 1520 1521 1522 1523 1525 1526 1528 1529 1529
1456 1460 1461 1462 1463 1461 1460 1457 1454 1455 1457 1457 1452 1449 1450 1450 1448 1450 1456 1459 1459 1466 1471 1462 1455 1461 1460 1454 1456 1453 1449 1451 1450 1450 1453 1453 1455 1458 1458 1458 1459 1460 1463 1464 1466 1468 1468 1469 1470 1471 1473 1475 1476 1478 1480 1481 1484 1486 1489 1491 1492 1494 1495 1495 1497 1498 1500 1501 1502 1503 1505 1506 1508 1510 1512 1514 1515 1517 1518 1519 1521 1522 1524 1525 1526 1527
1459 1464 1463 1460 1459 1457 1454 1452 1451 1452 1452 1450 1449 1450 1451 1449 1451 1456 1457 1453 1455 1463 1467 1458 1453 1459 1458 1454 1455 1452 1450 1450 1449 1450 1454 1453 1452 1453 1455 1456 1457 1460 1462 1464 1466 1467 1467 1468 1469 1470 1472 1473 1475 1477 1478 1479 1482 1484 1487 1489 1490 1492 1492 1493 1494 1496 1497 1499 1500 1501 1503 1504 1507 1508 1510 1511 1513 1514 1516 1517 1518 1520 1521 1522 1523 1525
1461 1466 1463 1461 1461 1457 1452 1451 1450 1451 1455 1458 1456 1452 1449 1447 1449 1454 1455 1452 1453 1455 1454 1453 1456 1459 1457 1454 1452 1450 1451 1450 1448 1449 1452 1453 1452 1453 1455 1456 1457 1460 1463 1464 1466 1466 1466 1468 1468 1469 1471 1472 1474 1476 1477 1479 1480 1482 1486 1487 1489 1490 1491 1491 1492 1493 1495 1497 1498 1500 1501 1503 1505 1506 1507 1509 1510 1511 1513 1514 1516 1517 1518 1519 1520 1522
1464 1467 1461 1460 1467 1464 1455 1452 1451 1453 1458 1463 1460 1453 1449 1448 1449 1452 1453 1454 1456 1455 1452 1455 1462 1461 1456 1452 1450 1449 1451 1451 1450 1451 1452 1453 1453 1453 1455 1456 1458 1459 1461 1463 1465 1465 1465 1466 1466 1467 1468 1471 1473 1474 1476 1478 1479 1482 1485 1486 1487 1489 1489 1490 1490 1491 1493 1495 1496 1498 1500 1501 1503 1504 1505 1506 1508 1509 1510 1512 1513 1514 1515 1516 1517 1518
1464 1466 1460 1462 1475 1473 1459 1454 1455 1453 1453 1457 1461 1463 1461 1458 1459 1461 1460 1460 1463 1463 1459 1460 1466 1465 1458 1454 1452 1451 1452 1452 1452 1452 1452 1453 1453 1453 1454 1456 1457 1458 1460 1462 1463 1463 1463 1464 1465 1465 1466 1468 1471 1471 1472 1475 1478 1480 1482 1484 1486 1486 1487 1488 1488 1489 1491 1493 1495 1496 1498 1500 1501 1502 1503 1504 1505 1507 1508 1509 1510 1511 1512 1513 1514 1515
1462 1467 1466 1469 1479 1476 1464 1461 1461 1459 1464 1470 1472 1473 1470 1465 1465 1467 1465 1465 1466 1465 1466 1469 1470 1465 1458 1456 1456 1455 1454 1454 1454 1454 1454 1453 1453 1454 1455 1455 1455 1458 1460 1462 1461 1461 1461 1462 1462 1463 1463 1465 1467 1467 1468 1472 1476 1479 1480 1482 1483 1484 1485 1486 1486 1487 1489 1490 1492 1494 1495 1497 1499 1500 1501 1502 1503 1504 1505 1506 1507 1508 1509 1510 1511 1512
1463 1465 1466 1469 1478 1478 1468 1465 1469 1474 1482 1483 1475 1469 1469 1468 1469 1472 1474 1473 1470 1469 1470 1471 1468 1463 1461 1460 1459 1458 1456 1454 1454 1456 1455 1454 1454 1455 1455 1454 1456 1457 1459 1461 1462 1461 1460 1458 1459 1460 1460 1461 1462 1463 1466 1469 1473 1476 1479 1480 1481 1482 1483 1484 1484 1485 1486 1488 1490 1491 1492 1494 1496 1497 1499 1499 1500 1502 1502 1503 1504 1505 1506 1507 1508 1509
1467 1467 1467 1467 1473 1477 1470 1472 1487 1493 1485 1477 1471 1468 1469 1468 1467 1470 1474 1474 1473 1472 1470 1470 1469 1467 1465 1463 1462 1461 1458 1456 1455 1455 1455 1456 1456 1455 1455 1455 1456 1456 1457 1458 1460 1460 1457 1456 1457 1458 1458 1460 1460 1461 1464 1466 1468 1473 1476 1477 1478 1479 1480 1481 1482 1482 1483 1485 1487 1488 1489 1491 1492 1494 1496 1497 1498 1499 1499 1500 1501 1502 1503 1504 1505 1506
1467 1468 1469 1469 1471 1476 1477 1482 1493 1490 1474 1469 1472 1470 1469 1469 1468 1472 1477 1478 1476 1475 1473 1473 1473 1469 1467 1466 1465 1463 1461 1458 1456 1455 1456 1456 1456 1456 1456 1456 1456 1456 1455 1455 1456 1457 1456 1456 1456 1455 1456 1459 1459 1458 1460 1463 1466 1469 1472 1473 1475 1476 1478 1479 1479 1479 1480 1482 1484 1486 1487 1488 1490 1491 1493 1494 1495 1495 1496 1497 1497 1499 1500 1500 1501 1502
1466 1468 1470 1473 1473 1475 1478 1479 1479 1478 1477 1479 1479 1475 1472 1473 1473 1475 1481 1482 1479 1477 1476 1475 1474 1472 1470 1468 1466 1464 1462 1460 1457 1456 1458 1458 1457 1457 1457 1457 1457 1457 1455 1454 1455 1455 1456 1455 1454 1454 1455 1456 1457 1457 1458 1462 1464 1466 1468 1470 1471 1473 1475 1475 1475 1476 1477 1479 1481 1483 1485 1487 1488 1489 1490 1491 1492 1492 1493 1493 1494 1495 1496 1497 1498 1498
1466 1468 1472 1476 1474 1472 1477 1478 1476 1484 1492 1489 1483 1479 1476 1475 1473 1473 1479 1485 1483 1479 1478 1478 1476 1474 1471 1468 1467 1465 1462 1461 1460 1460 1460 1461 1459 1459 1459 1458 1458 1458 1456 1456 1455 1454 1454 1454 1454 1454 1454 1453 1455 1458 1460 1462 1463 1465 1466 1467 1467 1470 1471 1471 1471 1473 1475 1477 1479 1481 1483 1485 1486 1487 1487 1488 1488 1489 1490 1490 1491 1492 1493 1493 1494 1495
1465 1466 1468 1473 1474 1472 1477 1480 1482 1491 1496 1490 1483 1480 1477 1476 1473 1473 1484 1493 1490 1483 1481 1479 1478 1477 1473 1471 1469 1465 1464 1466 1466 1464 1464 1463 1461 1459 1459 1459 1458 1458 1459 1458 1457 1455 1453 1453 1454 1454 1454 1454 1455 1458 1460 1462 1462 1464 1465 1465 1466 1467 1467 1467 1468 1470 1473 1476 1478 1479 1481 1482 1483 1484 1485 1485 1486 1486 1487 1487 1488 1488 1489 1490 1490 1491
1470 1471 1473 1476 1477 1477 1478 1480 1486 1493 1493 1486 1481 1478 1476 1474 1473 1478 1493 1500 1494 1490 1488 1482 1478 1477 1475 1473 1471 1468 1469 1471 1470 1469 1468 1466 1462 1461 1460 1459 1459 1460 1461 1460 1458 1456 1455 1454 1454 1454 1455 1455 1455 1456 1458 1458 1459 1461 1462 1463 1464 1464 1464 1465 1467 1470 1472 1475 1477 1478 1478 1479 1480 1481 1481 1482 1483 1484 1484 1485 1485 1485 1485 1486 1487 1487
1476 1477 1479 1478 1480 1484 1486 1486 1489 1492 1489 1483 1480 1478 1474 1471 1475 1487 1498 1497 1492 1493 1492 1486 1481 1478 1476 1475 1474 1472 1473 1473 1472 1471 1469 1466 1463 1462 1461 1460 1461 1462 1462 1461 1460 1459 1458 1456 1455 1455 1455 1456 1456 1456 1455 1455 1455 1457 1459 1462 1463 1463 1463 1465 1466 1467 1469 1471 1472 1474 1475 1477 1477 1478 1479 1480 1480 1481 1481 1482 1482 1483 1483 1483 1484 1484
1480 1480 1478 1478 1481 1483 1484 1486 1491 1493 1489 1484 1481 1478 1473 1476 1486 1495 1496 1492 1491 1491 1489 1487 1485 1480 1476 1476 1476 1476 1475 1474 1473 1472 1470 1466 1464 1462 1460 1459 1460 1461 1461 1461 1460 1460 1459 1458 1457 1457 1457 1456 1456 1456 1455 1454 1454 1456 1459 1461 1461 1461 1462 1463 1463 1463 1464 1465 1467 1469 1471 1473 1474 1475 1476 1477 1478 1479 1479 1479 1480 1481 1481 1481 1482 1482
1482 1483 1484 1486 1485 1481 1481 1489 1499 1501 1493 1485 1483 1482 1480 1485 1494 1495 1490 1489 1490 1489 1487 1487 1486 1482 1480 1480 1479 1478 1476 1473 1473 1473 1472 1470 1467 1464 1462 1460 1460 1460 1460 1459 1459 1459 1459 1460 1460 1459 1459 1458 1457 1455 1455 1455 1455 1456 1458 1458 1458 1459 1460 1460 1460 1460 1461 1462 1464 1466 1468 1470 1471 1472 1473 1474 1475 1476 1477 1477 1478 1479 1479 1480 1479 1479
1484 1487 1491 1491 1490 1490 1494 1500 1504 1502 1495 1489 1488 1489 1489 1490 1492 1490 1488 1489 1489 1488 1487 1486 1486 1486 1485 1483 1482 1481 1479 1476 1475 1474 1474 1473 1471 1468 1466 1463 1460 1460 1460 1460 1459 1460 1461 1461 1461 1460 1460 1459 1458 1457 1457 1456 1456 1456 1456 1456 1456 1457 1457 1458 1458 1459 1459 1460 1461 1463 1465 1467 1468 1470 1471 1472 1473 1473 1474 1475 1476 1477 1478 1478 1477 1476
1490 1489 1490 1491 1492 1495 1499 1501 1499 1497 1494 1491 1491 1492 1492 1492 1491 1490 1490 1489 1489 1489 1488 1487 1487 1487 1487 1485 1483 1482 1481 1480 1479 1477 1476 1475 1474 1472 1470 1467 1464 1464 1465 1464 1463 1462 1462 1462 1461 1461 1461 1460 1459 1459 1458 1457 1456 1456 1455 1454 1454 1454 1456 1457 1458 1457 1458 1459 1460 1460 1461 1462 1465 1467 1468 1468 1468 1468 1469 1470 1471 1472 1475 1475 1474 1474
1488 1486 1487 1489 1492 1495 1496 1495 1495 1495 1493 1492 1492 1492 1492 1492 1492 1491 1490 1490 1489 1489 1488 1488 1487 1487 1486 1487 1485 1483 1482 1482 1481 1480 1479 1478 1477 1476 1474 1473 1472 1472 1471 1470 1468 1466 1465 1464 1464 1463 1463 1464 1464 1462 1459 1458 1457 1456 1455 1455 1454 1454 1455 1456 1456 1457 1457 1457 1456 1455 1457 1459 1463 1464 1465 1465 1464 1464 1466 1468 1468 1470 1472 1472 1472 1473
1485 1486 1488 1489 1492 1495 1497 1496 1494 1494 1493 1492 1492 1493 1493 1493 1493 1492 1492 1491 1490 1490 1489 1488 1488 1487 1486 1487 1486 1485 1484 1483 1482 1482 1481 1480 1479 1478 1476 1476 1475 1474 1472 1471 1469 1468 1466 1466 1466 1466 1466 1466 1464 1461 1459 1458 1458 1457 1456 1455 1455 1455 1454 1454 1454 1455 1455 1454 1453 1453 1456 1460 1463 1464 1464 1464 1463 1463 1465 1467 1468 1468 1469 1469 1469 1471
1485 1486 1489 1490 1492 1494 1496 1495 1493 1494 1495 1494 1494 1494 1493 1493 1493 1492 1492 1492 1491 1491 1490 1489 1488 1488 1487 1487 1487 1486 1485 1484 1483 1483 1482 1481 1480 1479 1478 1477 1476 1475 1473 1471 1469 1468 1466 1466 1466 1466 1465 1464 1462 1460 1459 1458 1458 1457 1456 1456 1456 1456 1454 1453 1453 1452 1452 1452 1453 1454 1456 1458 1461 1463 1464 1463 1462 1462 1464 1464 1465 1465 1467 1467 1466 1467
1485 1485 1487 1491 1493 1494 1495 1495 1494 1495 1495 1494 1494 1495 1494 1494 1494 1493 1493 1493 1492 1491 1491 1490 1490 1490 1489 1488 1488 1487 1486 1485 1484 1483 1483 1483 1481 1480 1479 1479 1478 1477 1475 1473 1471 1470 1468 1468 1467 1466 1464 1463 1463 1462 1462 1461 1461 1459 1459 1459 1458 1455 1454 1453 1453 1452 1452 1452 1452 1452 1454 1456 1459 1461 1462 1461 1460 1461 1462 1463 1464 1465 1466 1466 1466 1466
1484 1486 1486 1488 1493 1496 1497 1496 1495 1496 1496 1495 1495 1495 1495 1494 1494 1493 1493 1493 1493 1492 1492 1491 1491 1491 1490 1490 1489 1488 1487 1486 1485 1484 1484 1483 1482 1481 1480 1479 1478 1477 1476 1475 1474 1472 1469 1468 1468 1468 1467 1465 1465 1464 1463 1463 1462 1461 1460 1459 1457 1455 1454 1454 1454 1455 1454 1452 1451 1451 1452 1456 1459 1460 1460 1459 1458 1459 1461 1462 1463 1464 1465 1465 1465 1465
1488 1488 1487 1488 1493 1496 1495 1495 1495 1496 1496 1495 1495 1495 1495 1495 1494 1494 1494 1494 1493 1493 1493 1492 1492 1492 1491 1490 1490 1489 1488 1487 1486 1485 1484 1483 1482 1481 1480 1479 1477 1476 1475 1474 1473 1472 1470 1469 1468 1468 1468 1468 1467 1466 1465 1464 1463 1461 1460 1459 1458 1456 1455 1454 1456 1458 1457 1454 1453 1453 1453 1456 1458 1459 1459 1458 1457 1458 1460 1462 1463 1463 1464 1464 1464 1465